Weather History for Crestview, FL

Change the Weather History Date:

Sunday, November 13, 2011

  Actual Average Record
Temperature  
Mean Temperature 62 °F -  
Max Temperature 75 °F - - ()
Min Temperature 48 °F - - ()
Degree Days  
Heating Degree Days 4    
Growing Degree Days 12 (Base 50)    
Moisture  
Dew Point 54 °F    
Average Humidity 74    
Maximum Humidity 96    
Minimum Humidity 57    
Precipitation  
Precipitation 0.00 in - - ()
Sea Level Pressure  
Sea Level Pressure 30.16 in    
Wind  
Wind Speed 7 mph (ESE)    
Max Wind Speed 15 mph    
Max Gust Speed 23 mph    
Visibility 10 miles    
Events      
T = Trace of Precipitation, MM = Missing Value Source: NWS Daily Summary

Daily Weather History Graph

Daily Weather History Graph

Search for Another Location

Airport:

Trip Planner

Search our weather history database for the weather conditions in past years. The results will help you decide how hot, cold, wet, or windy it might be!

Date:

Astronomy

Nov. 13, 2011 Rise Set
Actual Time 6:10 AM CST 4:49 PM CST
Civil Twilight 5:45 AM CST 5:15 PM CST
Nautical Twilight 5:16 AM CST 5:44 PM CST
Astronomical Twilight 4:47 AM CST 6:12 PM CST
Moon 7:05 PM CST (11/13) 8:35 AM CST (11/13)
Length of Visible Light 11h 30m
Length of Day
10h 39m
Waning Gibbous, 92% of the Moon is Illuminated
Nov 13
Waning Gibbous
Nov 18
Last Quarter
Nov 25
New
Dec 2
First Quarter
Dec 10
Full

Hourly Weather History & Observations

Time (CST) Temp. Dew Point Humidity Pressure Visibility Wind Dir Wind Speed Gust Speed Precip Events Conditions
12:55 AM 52.0 °F 44.8 °F 76% 30.20 in 10.0 mi East 4.6 mph - N/A   Overcast
1:55 AM 50.0 °F 42.8 °F 76% 30.19 in 10.0 mi East 5.8 mph - N/A   Partly Cloudy
2:55 AM 51.1 °F 39.4 °F 64% 30.18 in 10.0 mi East 5.8 mph - N/A   Clear
3:55 AM 48.0 °F 38.8 °F 71% 30.19 in 10.0 mi NE 3.5 mph - N/A   Clear
4:55 AM 48.9 °F 41.0 °F 74% 30.18 in 10.0 mi East 4.6 mph - N/A   Clear
5:55 AM 50.4 °F 45.7 °F 84% 30.19 in 10.0 mi East 5.8 mph - N/A   Clear
6:55 AM 52.9 °F 48.0 °F 84% 30.20 in 10.0 mi East 6.9 mph - N/A   Clear
7:55 AM 60.1 °F 51.6 °F 74% 30.21 in 10.0 mi East 8.1 mph - N/A   Partly Cloudy
8:55 AM 62.4 °F 53.6 °F 73% 30.22 in 10.0 mi ESE 3.5 mph - N/A   Scattered Clouds
9:55 AM 67.8 °F 56.1 °F 66% 30.21 in 10.0 mi SE 6.9 mph - N/A   Scattered Clouds
10:55 AM 70.5 °F 57.4 °F 63% 30.19 in 10.0 mi SE 9.2 mph - N/A   Scattered Clouds
11:55 AM 74.1 °F 58.5 °F 58% 30.15 in 10.0 mi SSE 9.2 mph - N/A   Scattered Clouds
12:55 PM 75.6 °F 59.5 °F 57% 30.12 in 10.0 mi SE 15.0 mph 23.0 mph N/A   Partly Cloudy
1:55 PM 72.7 °F 60.6 °F 66% 30.12 in 10.0 mi SE 10.4 mph - N/A   Scattered Clouds
2:55 PM 72.0 °F 59.7 °F 65% 30.11 in 10.0 mi SE 10.4 mph 17.3 mph N/A   Mostly Cloudy
3:55 PM 70.9 °F 58.8 °F 66% 30.11 in 10.0 mi SSE 13.8 mph - N/A   Scattered Clouds
4:55 PM 68.9 °F 59.4 °F 72% 30.12 in 10.0 mi SE 11.5 mph - N/A   Mostly Cloudy
5:55 PM 67.8 °F 59.4 °F 74% 30.13 in 10.0 mi SE 9.2 mph - N/A   Mostly Cloudy
6:55 PM 67.8 °F 59.7 °F 75% 30.13 in 10.0 mi SE 11.5 mph - N/A   Overcast
7:55 PM 66.6 °F 59.4 °F 78% 30.13 in 10.0 mi SE 8.1 mph - N/A   Partly Cloudy
8:55 PM 65.3 °F 59.9 °F 83% 30.14 in 10.0 mi ESE 5.8 mph - N/A   Clear
9:55 PM 64.2 °F 60.3 °F 87% 30.13 in 10.0 mi SE 8.1 mph - N/A   Clear
10:55 PM 61.9 °F 59.7 °F 93% 30.13 in 10.0 mi South 4.6 mph - N/A   Clear
11:55 PM 61.0 °F 59.9 °F 96% 30.12 in 10.0 mi SE 4.6 mph - N/A   Clear